Weather History for HEAX - November, 2012

Change the Weather History Date:

Saturday, November 10, 2012

  Actual Average Record
Temperature  
Mean Temperature 73 °F -  
Max Temperature 79 °F 70 °F 82 °F (2004)
Min Temperature 67 °F 54 °F 53 °F (2011)
Cooling Degree Days 8    
Growing Degree Days 23 (Base 50)    
Moisture  
Dew Point 59 °F    
Average Humidity 63    
Maximum Humidity 88    
Minimum Humidity 50    
Precipitation  
Precipitation 0.00 in 0.05 in - ()
Sea Level Pressure  
Sea Level Pressure 29.97 in    
Wind  
Wind Speed 10 mph ()    
Max Wind Speed 17 mph    
Max Gust Speed -    
Visibility 6.2 miles    
Events      
Averages and records for this station are not official NWS values.
T = Trace of Precipitation, MM = Missing Value Source: Averaged Metar Reports

Daily Weather History Graph

Daily Weather History Graph

Search for Another Location

Airport or City:

Trip Planner

Search our weather history database for the weather conditions in past years. The results will help you decide how hot, cold, wet, or windy it might be!

Date:

Astronomy

Nov. 10, 2012 Rise Set
Actual Time 6:23 AM EET 5:04 PM EET
Civil Twilight 5:57 AM EET 5:30 PM EET
Nautical Twilight 5:28 AM EET 5:59 PM EET
Astronomical Twilight 5:00 AM EET 6:27 PM EET
Moon 2:20 AM EET (11/10) 2:27 PM EET (11/10)
Length of Visible Light 11h 32m
Length of Day
10h 41m
Waning Crescent, 17% of the Moon is Illuminated
Nov 10
Waning Crescent
Nov 14
New
Nov 20
First Quarter
Nov 28
Full
Dec 6
Last Quarter

Hourly Weather History & Observations

Time (EET) Temp. Dew Point Humidity Pressure Visibility Wind Dir Wind Speed Gust Speed Precip Events Conditions
12:00 AM 69.8 °F 57.2 °F 64% 29.95 in 6.2 mi NW 11.5 mph - N/A   Scattered Clouds
1:00 AM 69.8 °F 59.0 °F 68% 29.98 in 6.2 mi WNW 10.4 mph - N/A   Scattered Clouds
2:00 AM 70 °F 57 °F 53% 29.96 in 6 mi WNW 9.2 mph - -   Mostly Cloudy
2:00 AM 69.8 °F 57.2 °F 64% 29.95 in 6.2 mi WNW 9.2 mph - N/A   Scattered Clouds
3:00 AM 69.8 °F 57.2 °F 64% 29.95 in 6.2 mi WNW 6.9 mph - N/A   Scattered Clouds
4:00 AM 68.0 °F 57.2 °F 68% 29.95 in 6.2 mi WNW 8.1 mph - N/A   Scattered Clouds
5:00 AM 69.8 °F 57.2 °F 64% 29.95 in 6.2 mi West 11.5 mph - N/A   Scattered Clouds
6:00 AM 68.0 °F 55.4 °F 64% 29.95 in 6.2 mi West 8.1 mph - N/A   Scattered Clouds
7:00 AM 68.0 °F 55.4 °F 64% 29.95 in 6.2 mi West 4.6 mph - N/A   Scattered Clouds
8:00 AM 72 °F 59 °F 55% 29.96 in 6 mi West 11.5 mph - -   Mostly Cloudy
8:00 AM 71.6 °F 59.0 °F 64% 29.95 in 6.2 mi West 11.5 mph - N/A   Scattered Clouds
9:00 AM 73.4 °F 60.8 °F 65% 29.98 in 6.2 mi SW 8.1 mph - N/A   Scattered Clouds
10:00 AM 73.4 °F 59.0 °F 61% 29.98 in 6.2 mi West 9.2 mph - N/A   Scattered Clouds
11:00 AM 75.2 °F 62.6 °F 65% 29.98 in 6.2 mi West 11.5 mph - N/A   Scattered Clouds
12:00 PM 78.8 °F 59.0 °F 51% 29.95 in 6.2 mi West 13.8 mph - N/A   Scattered Clouds
1:00 PM 77.0 °F 60.8 °F 57% 29.95 in 6.2 mi West 12.7 mph - N/A   Scattered Clouds
2:00 PM 74 °F 62 °F 56% 29.94 in 6 mi WSW 17.3 mph - -   Mostly Cloudy
2:00 PM 73.4 °F 60.8 °F 65% 29.92 in 6.2 mi WSW 17.3 mph - N/A   Scattered Clouds
3:00 PM 68.0 °F 64.4 °F 88% 29.92 in 6.2 mi NW 15.0 mph - N/A   Scattered Clouds
4:00 PM 71.6 °F 64.4 °F 78% 29.95 in 6.2 mi West 9.2 mph - N/A   Scattered Clouds
5:00 PM 71.6 °F 62.6 °F 73% 29.95 in 6.2 mi NW 9.2 mph - N/A   Scattered Clouds
6:00 PM 71.6 °F 59.0 °F 64% 29.98 in 6.2 mi NW 15.0 mph - N/A   Scattered Clouds
7:00 PM 71.6 °F 59.0 °F 64% 29.98 in 6.2 mi NW 15.0 mph - N/A   Scattered Clouds
8:00 PM 71 °F 56 °F 50% 30.01 in 6 mi NW 13.8 mph - -   Scattered Clouds
8:00 PM 69.8 °F 57.2 °F 64% 30.01 in 6.2 mi NW 13.8 mph - N/A   Partly Cloudy
9:00 PM 69.8 °F 57.2 °F 64% 30.01 in 6.2 mi NW 11.5 mph - N/A   Partly Cloudy
10:00 PM 69.8 °F 55.4 °F 60% 30.01 in 6.2 mi NW 9.2 mph - N/A   Scattered Clouds
11:00 PM 69.8 °F 55.4 °F 60% 30.01 in 6.2 mi WNW 9.2 mph - N/A   Scattered Clouds